sat.trackr.live / text

‹ back to catalog

STARLINK-35574

NORAD 66111 · 2025-236AB

PAYLOAD ACTIVE UNKNOWN

§ Identity

Operator
Country
US
Launch date
2025-10-19
Launch site
AFWTR
Launch vehicle
Mass (kg)
RCS (m²)

Purposes: comms

External: N2YO · Heavens-Above · Gunter

§ Orbital elements

Epoch: 2026-05-25T04:43:54.463296Z

Period
94.10 min
Inclination
53.1568°
Eccentricity
0.0001121
Mean motion
15.30211511 rev/d
Perigee alt
474.4 km
Apogee alt
475.9 km
Semi-major
6,853.3 km
B*
5.0473e-4
RAAN
108.8240°
Arg perigee
74.0990°
Mean anomaly
286.0134°
Rev number
3,459

§ Raw data

STARLINK-355741 66111U 25236AB  26145.19715814  .00014624  00000+0  50473-3 0  99952 66111  53.1568 108.8240 0001121  74.0990 286.0134 15.30211511 34597

JSON: /api/v1/satellites/66111 · /tle

For live sub-satellite position, see the globe view (requires WebGL).

§ Visibility from observer

Set your observer location to see the next 7 days of passes ≥ 10°. The values pass through the URL so the page stays shareable.

No JS? Fill the form by hand. The geolocation button needs JavaScript.